Regional Weather Roundup
Issued by NWS Charleston, SC

Current Version | Previous Version | Text Only | Print | Product List | Glossary Off
Versions: 1 2 3 4 5 6 7 8 9 10 11 12 13 14 15 16 17 18 19 20 21 22 23 24 25 26 27 28 29 30 31 32 33 34 35 36 37 38 39 40 41 42 43 44 45 46 47 48 49 50

000
ASUS42 KCHS 051626
RWRCHS

REGIONAL WEATHER ROUNDUP
NATIONAL WEATHER SERVICE CHARLESTON SC
1100 AM EST THU MAR 05 2015

NOTE: "FAIR" INDICATES FEW OR NO CLOUDS BELOW 12,000 FEET WITH NO
SIGNIFICANT WEATHER AND/OR OBSTRUCTIONS TO VISIBILITY.

NOT ALL STATIONS ARE QUALITY CONTROLLED BY THE NATIONAL
WEATHER SERVICE. USE DATA WITH CAUTION...ESPECIALLY
DEWPOINT OBSERVATIONS.

SCZ027-030-031-034>040-042>050-051700-
...SOUTHEAST SOUTH CAROLINA...

CITY           SKY/WX    TMP DP  RH WIND       PRES   REMARKS
N CHARLESTON   PTSUNNY   72  63  73 SW25G31   30.02S
WATERFRONT PRK   N/A     64 N/A N/A SW16G25     N/A
MOUNT PLEASANT FAIR      72  64  78 SW25      30.04R
PINOPOLIS      NOT AVBL
MONCKS CORNER  FAIR      81  63  54 SW15      29.99S
SUMMERVILLE    FAIR      79  64  61 S16G24    30.00S
BEAUFORT MCAS  PTSUNNY   73  64  73 S8G21     30.02S
BEAUFORT ARPT  FAIR      72  64  78 S8G17     30.02F
HILTON HEAD IS SUNNY     70  64  83 S14G23    30.05S
WALTERBORO     PTSUNNY   81  64  57 SW24G30   30.00F
ALLENDALE      CLOUDY    77  63  61 SW12G26   29.98F

...SOUTHERN MIDLANDS AND PEE DEE...

CITY           SKY/WX    TMP DP  RH WIND       PRES   REMARKS
GEORGETOWN     NOT AVBL
KINGSTREE      NOT AVBL
ORANGEBURG     PTSUNNY   76  61  59 SW24G33   29.98S
BARNWELL       PTSUNNY   77  64  65 SW22G28   29.98F
AIKEN          PTSUNNY   73  63  68 SW20G29   29.98S
MANNING        FAIR      77  55  47 SW17G28   29.98F
COLUMBIA       PTSUNNY   75  62  64 SW21G30   29.93F
SUMTER         CLOUDY    72  62  69 SW23G31   29.94S
FLORENCE       PTSUNNY   74  62  66 SW20G29   29.94F
MYRTLE BEACH   MOSUNNY   70  61  73 S15       30.00F
N MYRTLE BEACH CLOUDY    63  60  90 SW23      29.99R FOG

$$

GAZ063-065-086>088-099>101-113>116-118-119-134>141-150-051700-
...SOUTHEAST GEORGIA...

CITY           SKY/WX    TMP DP  RH WIND       PRES   REMARKS
SAVANNAH ARPT  PTSUNNY   80  62  54 S18G24    30.02S
HUNTER AAF     MOSUNNY   79  66  63 SW15G28   30.01S
FORT STEWART   MOSUNNY   78  63  60 S18G28    30.02R
STATESBORO     CLOUDY    77  64  64 SW18G24   30.02R
SYLVANIA       PTSUNNY   77  65  68 SW15G24   30.02S
CLAXTON        PTSUNNY   77  64  65 SW13G22   30.03R

...CSRA...CENTRAL AND FAR SOUTHEAST GEORGIA...

CITY           SKY/WX    TMP DP  RH WIND       PRES   REMARKS
THOMSON        CLOUDY    74  67  77 S13G21    29.99R
AUGUSTA-BUSH   CLOUDY    74  63  68 S16G30    29.95F
AUGUSTA-DANIEL PTSUNNY   74  63  68 SW17G30   29.96S
SWAINSBORO     CLOUDY    75  55  50 SW9G23    30.02S
VIDALIA        PTSUNNY   75  64  69 SW18G26   30.03S
EASTMAN        CLOUDY    74  67  79 SW15G21   30.05R
HAZLEHURST     NOT AVBL
ALMA           CLOUDY    73  63  70 SW16G24   30.06R
WAYCROSS       CLOUDY    77  69  75 SW15G23   30.07S
JESUP          NOT AVBL
BAXLEY         CLOUDY    75  64  69 SW9G18    30.05R
BRUNSWICK      PTSUNNY   81  63  54 SW18G25   30.07S
SAINT SIMONS   MOSUNNY   68  61  78 S12       30.07S

$$

SCZ027-028-034-036>038-045-046-048>050-GAZ119-141-051700-
...LAKE AND SUPPLEMENTAL COASTAL OBSERVATIONS...

STATION/POSITION TIME  TEMP    WIND        PRES    WAVE   SWELL
                       AIR SEA DIR/SP/G            HT/PER HT/PER/DIR
                 (UTC) (F)     (DEG/KT/KT) (MB)    (FT/S) (FT/S/D)
UPR LAKE MARION  NOT AVBL
WINYAH BAY       1500   66     210/ 15     1015.0
LAKE MURRAY      1600   64     210/ 13/ 21 1012.5F
ACE BASIN NERRS  1545   68     190/  2     1017.0
FORT PULASKI     1600   66 52  200/ 12/ 19 1017.8S
SAPELO ISLAND    1500   71     180/ 11     1018.0S

$$

ANZ835-935-AMZ111-154-330-350-352-354-370-450-454-472-051700-
...C-MAN AND BUOY OBSERVATIONS...

STATION/POSITION TIME  TEMP    WIND        PRES    WAVE   SWELL
                       AIR SEA DIR/SP/G            HT/PER HT/PER/DIR
                 (UTC) (F)     (DEG/KT/KT) (MB)    (FT/S) (FT/S/D)
BUOY 41004       1550   69 68  210/ 19/ 23 1016.3R   6/ 6   3/11
BUOY 41008       1550   59 55  200/ 14/ 14 1018.1R   3/10   2/130/10
FOLLY BEACH CMAN 1600   58     220/ 12/ 15 1017.6R
CAPERS NEARSHORE 1500   55     230/ 10/ 12   N/A
FRIPP NEARSHORE  1500   56     210/ 14/ 16 1016.8S


STATION/POSITION TIME  TEMP    WIND        PRES    WAVE   SWELL
                       AIR SEA DIR/SP/G            HT/PER HT/PER/DIR
                 (UTC) (F)     (DEG/KT/KT) (MB)    (FT/S) (FT/S/D)
5E ST. MARYS GA  1521      55                N/A     3/ 6   2/110/11
FRYING PAN BUOY  1550   68 65  220/ 17/ 21 1016.5R   7/ 7   5/180/ 7
BUOY 41025       NOT AVBL
CAPE LOOKOUT NC  1600   63     230/ 10/ 13 1015.3R
BUOY 41002       1550   74 73  220/ 21/ 25 1021.2R   6/ 7   3/130/10
BUOY 41010       1520   74 75  180/ 14/ 17 1021.5R
ST AUGUSTINE FL  1600   76     200/ 19/ 23 1019.5F


$$



USA.gov is the U.S. government's official web portal to all federal, state and local government web resources and services.